Location: Biçisarri
(42.4820°N, 1.4605°E)
Time: 16:43:54
(UTC+00:00)

Cosmos 2098 Rocket - Visible Passes

Search period start: 17 November 2025 00:00
Search period end: 27 November 2025 00:00
Orbit: 349 x 881 km, 82.9° (Epoch: 16 November)

Date Brightness Start Highest point End Pass type
(mag) Time Alt. Az. Time Alt. Az. Time Alt. Az.
18 Nov 6.2 05:32:12 10° NE 05:34:11 12° ENE 05:36:15 10° E visible
19 Nov 5.8 05:46:51 10° NNE 05:50:24 21° ENE 05:54:17 10° SE visible
20 Nov 5.0 06:02:13 10° N 06:06:30 36° ENE 06:11:20 10° SE visible
21 Nov 4.0 06:17:50 10° N 06:22:30 61° E 06:27:51 10° SSE visible
22 Nov 6.3 04:58:11 10° NE 05:00:23 13° ENE 05:02:41 10° E visible
23 Nov 6.0 05:12:43 10° NNE 05:16:27 21° ENE 05:20:32 10° ESE visible
24 Nov 5.2 05:27:54 10° NNE 05:32:26 35° ENE 05:37:27 10° SE visible
25 Nov 4.2 05:43:20 10° N 05:48:18 57° E 05:53:49 10° SSE visible
26 Nov 6.4 04:23:38 10° NE 04:25:54 13° ENE 04:28:16 10° E visible
26 Nov 3.6 05:58:57 10° N 06:04:04 88° W 06:09:46 10° S visible
